{"data":{"norad_id":58872,"intl_designator":"2024-019V","name":"STARLINK-31215","alt_names":[],"object_type":"PAYLOAD","status":"ACTIVE","operator":null,"country":"US","launch_date":"2024-01-29","launch_site_code":"AFETR","launch_vehicle":null,"mission":null,"orbit_class":"UNKNOWN","rcs_meters":null,"size_class":null,"mass_kg":null,"dimensions":null,"purposes":["comms"],"wikipedia_slug":null,"has_3d_model":false,"image_url":null,"decayed_at":null,"tle_current":{"epoch":"2026-05-25T02:51:32.840640Z","epoch_age_seconds":57960,"freshness":"FRESH","line1":"1 58872U 24019V   26145.11913010  .00001567  00000+0  66438-4 0  9999","line2":"2 58872  42.9968 177.0888 0000714 287.1881  72.8892 15.27586633130754","mean_motion":15.27586633,"eccentricity":7.14e-5,"inclination_deg":42.9968,"raan_deg":177.0888,"arg_perigee_deg":287.1881,"mean_anomaly_deg":72.8892,"bstar":6.6438e-5,"rev_number":13075,"period_min":94.266339393924,"perigee_km":482.53934725417,"apogee_km":483.51912179246,"semimajor_km":6861.1662345233,"source":"CELESTRAK","updated_at":"2026-05-25T13:38:18.779674Z"}}}